Location: *
(50.3194°N, 7.1067°E)
Time: 08:45:38
(UTC+00:00)

Meteor 2-5 Rocket - Pass Details

Date: 22 September 2019
Orbit: 834 x 911 km, 81.2° (Epoch: 22 October)

Event Time Altitude Azimuth Distance (km) Brightness Sun altitude
Rises 19:24:49 0° 345° (NNW) 3,495 7.5 -18.5°
Reaches altitude 10° 19:27:16 10° 343° (NNW) 2,562 6.8 -18.9°
Maximum altitude 19:33:04 68° 262° (W) 968 4.1 -19.7°
Drops below altitude 10° 19:38:55 10° 181° (S) 2,584 6.0 -20.6°
Enters shadow 19:39:15 - 181° (S) 2,711 6.1 -20.6°
